STARLINK-1151, 45081

Orbit data source: Space-Track

STARLINK-1151, 45081 is a payload satellite owned by SpaceX/Seattle (US) in LEO that was launched on Wed, 29 Jan 2020 UTC via an FALCON 9 launch vehicle from the Air Force Eastern Test Range (AFETR). Payloads include a variety of satellites, spacecraft, and rockets equipped with specific instruments for various scientific and technological missions. These include communications satellites like Starlink; space stations such as the ISS; scientific satellites like the Hubble; Earth observation satellites from companies like Planet Labs, Umbra, and HawkEye 360; GPS; miniature CubeSats for education and research; and military/defense satellites.

Loading next visibility...
STARLINK-1151 details
Identifier
45081, 2020-006AP
Orbit
LEO
Last TLE update23 hours ago
Origin
Flag of USSpaceX/Seattle (US)
ManufacturerSpaceX/Seattle
MissionOperational Commercial Communications
Bus & MotorSTARLINK, Unknown motor
Mass260 kg wet, ~248 kg dry
Launch date (UTC)
2020-01-29 (5 years ago)
Launch vehicle
FALCON 9
Launch site
Air Force Eastern Test Range (AFETR)
Object type
Payload
Rocket body
Debris
Shape & HBRBox + 1 Pan, 8.86 m
Radar Cross Section13.562 m², Large (>1 m²)

Expand to show TLE details & history

TLE from 23 hours ago
0 STARLINK-1151
1 45081U 20006AP  24360.48475400  .00022562  00000-0  15302-2 0  9993
2 45081  53.0539  78.3635 0001528  78.3145 281.8016 15.06363493270545
Epoch: 2024-12-25T11:38Z
Definitive object data (Epoch: 2024-12-25T11:38:02.745Z)
Latitude0.00002°
Longitude169.37425°
Altitude547.986 km
Speed7.589 km/s
True Right ascension05h 13m 27s
True Declination0° 00' 00"
Sunlit
Object was in full shadow at TLE epoch
Visualization TLE readout
Latitude-1.15383°
Longitude-14.08352°
Altitude548.411 km
Speed7.589 km/s
Apparent Right ascension19h 01m 35s
Apparent Declination-24° 10' 05"
Sunlit
Object is in daylight
Visualization observer readout
Local Sidereal Time10:04:55
Azimuth81.838° E
Elevation-48.612°
Doppler factor1
Orbital elements
Apogee altitude548.653 km
Perigee altitude546.536 km
Semi-major axis6,925.731 km
Eccentricity0.0001528
Inclination53.0539°
RAAN78.3635°
Arg. of periapsis78.3145°
True anomaly281.78446°
Mean anomaly281.8016°
Eccentric anomaly281.79303°
Mean motion3.76569 °/min
BSTAR0.0015302
Orbital period95.6 mins
Loading maneuver chart data...
Loading historical data...
Loading historical data...
Loading historical data...
Loading historical data...
Loading historical data...
Loading historical data...
Loading historical data...

STARLINK-1151 Visibility forecast

Observer location: undefined°, undefined

Span
Click to sort rows by Start time (UTC) header in descending order
Start Az.
Max El. time (UTC)
Max El. Az.
Max El.
End time (UTC)
End Az.
5 mins2024-12-26 13:34:41.813Z341.407° N2024-12-26 13:36:41.813Z22.002° NNE23.791°2024-12-26 13:39:41.813Z78.694° E
6 mins2024-12-26 15:13:41.813Z299.502° NW2024-12-26 15:16:41.813Z216.929° SW40.646°2024-12-26 15:19:41.813Z147.414° SSE
5 mins2024-12-27 06:47:41.813Z168.135° S2024-12-27 06:49:41.813Z124.502° SE23.231°2024-12-27 06:52:41.813Z74.975° E
6 mins2024-12-27 08:26:41.813Z264.733° W2024-12-27 08:28:41.813Z320.511° NNW35.572°2024-12-27 08:32:41.813Z40.451° NE
|